Location: Arroyo de San Miguel
(40.9167°N, 4.6667°W)
Time: 01:32:28
(UTC+00:00)

ATLAS 3B R/B - Pass Details

Date: 19 May 2025
Orbit: 935 x 1258 km, 63.8° (Epoch: 24 June)

Event Time Altitude Azimuth Distance (km) Brightness Sun altitude
Exits shadow 21:30:10 15° 97° (E) 2,720 4.4 -18.1°
Drops below altitude 10° 21:33:33 10° 70° (ENE) 3,149 5.0 -18.5°
Sets 21:37:42 0° 50° (NE) 4,165 5.8 -19.0°
